Location: Robert Brownlee Observatory
(34.2308°N, 117.2089°W)
Time: 10:47:26
(UTC-07:00)

Cosmos 1943 - Visible Passes

Search period start: 28 April 2017 00:00
Search period end: 08 May 2017 00:00
Orbit: 835 x 849 km, 71.0° (Epoch: 26 April)

Date Brightness Start Highest point End Pass type
(mag) Time Alt. Az. Time Alt. Az. Time Alt. Az.
28 Apr 5.5 00:55:13 18° NNE 00:55:13 18° NNE 00:56:37 10° NNE visible
28 Apr 5.5 02:37:01 13° NW 02:37:01 13° NW 02:38:38 10° NNW visible
29 Apr 5.5 00:40:20 17° NNE 00:40:20 17° NNE 00:41:37 10° NNE visible
29 Apr 5.5 02:22:07 14° NW 02:22:07 14° NW 02:23:49 10° NNW visible
30 Apr 5.6 00:25:24 17° NNE 00:25:24 17° NNE 00:26:36 10° NNE visible
30 Apr 5.5 02:07:11 15° NW 02:07:11 15° NW 02:08:58 10° NNW visible
01 May 5.5 00:10:26 16° NNE 00:10:26 16° NNE 00:11:36 10° NNE visible
01 May 5.5 01:52:12 15° NW 01:52:12 15° NW 01:54:07 10° NNW visible
01 May 5.5 23:55:25 16° NNE 23:55:25 16° NNE 23:56:35 10° NNE visible
02 May 5.5 01:37:12 16° NW 01:37:12 16° NW 01:39:15 10° NNW visible
02 May 5.4 23:40:23 17° NE 23:40:23 17° NE 23:41:34 10° NNE visible
03 May 5.5 01:22:10 17° NW 01:22:10 17° NW 01:24:23 10° NNW visible
03 May 5.4 23:25:17 17° NE 23:25:17 17° NE 23:26:32 10° NNE visible
04 May 5.4 01:07:04 18° NW 01:07:04 18° NW 01:09:29 10° NNW visible
04 May 5.3 23:10:08 18° NE 23:10:08 18° NE 23:11:31 10° NNE visible
05 May 5.4 00:51:54 19° NW 00:51:54 19° NW 00:54:36 10° N visible
05 May 5.1 22:54:55 19° NE 22:54:55 19° NE 22:56:29 10° NE visible
06 May 5.3 00:36:41 21° NW 00:36:41 21° NW 00:39:43 10° N visible
06 May 5.0 22:39:37 20° NE 22:39:37 20° NE 22:41:28 10° NE visible
07 May 5.2 00:21:23 22° NW 00:21:23 22° NW 00:24:49 10° N visible
07 May 4.8 22:24:14 22° NE 22:24:14 22° NE 22:26:26 10° NE visible
